Volver al catálogo

COSMOS 2251 DEB

ActivoLEO
NORAD 36529·DEBRIS·🇷🇺 Russia

Lanzado Jun 16, 1993 desde Plesetsk Cosmodrome

Loading…

Próximos Pases (próximas 24 horas)

TLE

ActualizadoSource: Space-Track

Época: Sep 14, 2026, 10:16 UTC

1 36529U 93036BCP 26257.42809204  .00049295  00000-0  42394-2 0  9990
2 36529  74.0020 161.4738 0050025 170.1592 313.7779 14.96174371652426

Sigue COSMOS 2251 DEB en tiempo real con AllMySat

Download on the App Store